RYR35DA LFRS-LFRB

Flight info

Callsign RYR35DA
Flight time 0h 29m
Altitude 18000
Route RIMON R66 ERCOZ
Aircraft B738/M-SDE2E3FGHIRWXY/LB1

Departure

Time 2026-04-30 14:06
Airport Nantes Atlantique Airport (LFRS)

Arrival

Time 2026-04-30 14:35
Airport Brest Bretagne airport (LFRB)
Time Latitude Longitude Altitude Speed Heading
2026-04-30 13:23 47.15512 -1.60160 89 ft 0 kts 206°
2026-04-30 13:56 47.15514 -1.60159 92 ft 1 kts 206°
2026-04-30 13:56 47.15530 -1.60147 89 ft 3 kts 208°
2026-04-30 13:56 47.15545 -1.60135 90 ft 3 kts 225°
2026-04-30 13:56 47.15554 -1.60116 92 ft 3 kts 281°
2026-04-30 13:57 47.15546 -1.60090 89 ft 3 kts 300°
2026-04-30 13:57 47.15542 -1.60078 90 ft 0 kts 297°
2026-04-30 14:00 47.15550 -1.60100 90 ft 6 kts 298°
2026-04-30 14:00 47.15580 -1.60186 89 ft 12 kts 297°
2026-04-30 14:01 47.15575 -1.60261 92 ft 12 kts 235°
2026-04-30 14:01 47.15522 -1.60386 92 ft 12 kts 276°
2026-04-30 14:01 47.15569 -1.60506 90 ft 15 kts 304°
2026-04-30 14:01 47.15577 -1.60600 90 ft 13 kts 240°
2026-04-30 14:02 47.15503 -1.60663 90 ft 12 kts 207°
2026-04-30 14:02 47.15416 -1.60730 92 ft 17 kts 207°
2026-04-30 14:02 47.15301 -1.60819 90 ft 19 kts 207°
2026-04-30 14:02 47.15184 -1.60907 90 ft 19 kts 207°
2026-04-30 14:03 47.15069 -1.60994 89 ft 19 kts 207°
2026-04-30 14:03 47.14948 -1.61087 90 ft 20 kts 207°
2026-04-30 14:03 47.14827 -1.61180 90 ft 19 kts 208°
2026-04-30 14:03 47.14710 -1.61268 90 ft 19 kts 207°
2026-04-30 14:04 47.14597 -1.61355 88 ft 18 kts 207°
2026-04-30 14:04 47.14486 -1.61438 90 ft 17 kts 207°
2026-04-30 14:04 47.14380 -1.61519 87 ft 17 kts 207°
2026-04-30 14:04 47.14278 -1.61597 85 ft 16 kts 207°
2026-04-30 14:05 47.14181 -1.61676 85 ft 16 kts 221°
2026-04-30 14:05 47.14141 -1.61819 85 ft 15 kts 259°
2026-04-30 14:05 47.14190 -1.61925 83 ft 13 kts 357°
2026-04-30 14:05 47.14277 -1.61866 88 ft 18 kts 28°
2026-04-30 14:06 47.14719 -1.61529 93 ft 134 kts 27°
2026-04-30 14:06 47.16997 -1.60119 2513 ft 200 kts 360°
2026-04-30 14:07 47.19340 -1.62731 4521 ft 246 kts 289°
2026-04-30 14:07 47.19822 -1.65162 5451 ft 254 kts 283°
2026-04-30 14:07 47.20419 -1.67755 6031 ft 280 kts 290°
2026-04-30 14:08 47.22035 -1.73007 8426 ft 287 kts 294°
2026-04-30 14:08 47.22911 -1.75704 8908 ft 293 kts 295°
2026-04-30 14:08 47.24876 -1.81139 10720 ft 312 kts 297°
2026-04-30 14:09 47.25964 -1.84088 11123 ft 343 kts 297°
2026-04-30 14:09 47.27131 -1.87263 11898 ft 357 kts 297°
2026-04-30 14:09 47.29505 -1.93763 14143 ft 363 kts 297°
2026-04-30 14:10 47.30706 -1.97071 14773 ft 366 kts 297°
2026-04-30 14:10 47.31898 -2.00358 15010 ft 363 kts 297°
2026-04-30 14:10 47.33204 -2.03551 15005 ft 363 kts 309°
2026-04-30 14:10 47.35107 -2.05966 15028 ft 363 kts 328°
2026-04-30 14:11 47.37305 -2.07813 15030 ft 363 kts 332°
2026-04-30 14:11 47.39511 -2.09549 15029 ft 364 kts 332°
2026-04-30 14:11 47.41751 -2.11308 15024 ft 365 kts 332°
2026-04-30 14:11 47.43992 -2.13095 15017 ft 365 kts 332°
2026-04-30 14:12 47.46220 -2.14899 15012 ft 365 kts 332°
2026-04-30 14:12 47.48440 -2.16711 15018 ft 365 kts 331°
2026-04-30 14:12 47.50609 -2.18650 15002 ft 365 kts 321°
2026-04-30 14:12 47.52318 -2.21397 15021 ft 363 kts 308°
2026-04-30 14:13 47.53849 -2.24315 15008 ft 363 kts 307°
2026-04-30 14:13 47.55386 -2.27299 15004 ft 363 kts 307°
2026-04-30 14:13 47.56916 -2.30278 15001 ft 363 kts 307°
2026-04-30 14:13 47.58450 -2.33259 15001 ft 364 kts 307°
2026-04-30 14:14 47.59989 -2.36238 15004 ft 364 kts 307°
2026-04-30 14:14 47.61528 -2.39210 15007 ft 364 kts 307°
2026-04-30 14:14 47.63074 -2.42190 15010 ft 364 kts 307°
2026-04-30 14:14 47.64618 -2.45164 15008 ft 364 kts 307°
2026-04-30 14:15 47.66164 -2.48141 15013 ft 364 kts 307°
2026-04-30 14:15 47.67693 -2.51089 15018 ft 364 kts 307°
2026-04-30 14:15 47.69237 -2.54066 15015 ft 364 kts 307°
2026-04-30 14:15 47.70781 -2.57047 15023 ft 364 kts 307°
2026-04-30 14:16 47.72324 -2.60029 15027 ft 364 kts 307°
2026-04-30 14:16 47.73868 -2.63016 15022 ft 365 kts 307°
2026-04-30 14:16 47.75416 -2.66015 15028 ft 365 kts 307°
2026-04-30 14:16 47.76962 -2.69014 15030 ft 364 kts 307°
2026-04-30 14:17 47.78505 -2.72009 15019 ft 364 kts 307°
2026-04-30 14:17 47.80044 -2.74999 15022 ft 364 kts 307°
2026-04-30 14:17 47.81584 -2.77995 15019 ft 364 kts 306°
2026-04-30 14:17 47.83121 -2.80989 15019 ft 364 kts 306°
2026-04-30 14:18 47.84643 -2.83955 15020 ft 365 kts 306°
2026-04-30 14:18 47.86182 -2.86958 15019 ft 365 kts 306°
2026-04-30 14:18 47.89270 -2.92995 15019 ft 366 kts 306°
2026-04-30 14:19 47.92362 -2.99056 15003 ft 369 kts 306°
2026-04-30 14:19 47.93913 -3.02100 14987 ft 366 kts 306°
2026-04-30 14:19 47.95420 -3.05060 14983 ft 352 kts 306°
2026-04-30 14:20 47.96882 -3.07933 14986 ft 345 kts 306°
2026-04-30 14:20 47.98319 -3.10762 14986 ft 340 kts 306°
2026-04-30 14:20 48.01165 -3.16374 14708 ft 340 kts 306°
2026-04-30 14:21 48.02590 -3.19188 14398 ft 339 kts 305°
2026-04-30 14:21 48.04001 -3.21979 14056 ft 335 kts 305°
2026-04-30 14:21 48.06777 -3.27476 13300 ft 327 kts 305°
2026-04-30 14:22 48.08141 -3.30179 12929 ft 324 kts 304°
2026-04-30 14:22 48.10823 -3.35507 12216 ft 317 kts 304°
2026-04-30 14:22 48.12143 -3.38133 11880 ft 314 kts 305°
2026-04-30 14:23 48.14747 -3.43320 11180 ft 309 kts 304°
2026-04-30 14:23 48.17287 -3.48389 10514 ft 304 kts 304°
2026-04-30 14:24 48.19794 -3.53402 10161 ft 297 kts 304°
2026-04-30 14:24 48.21024 -3.55862 10029 ft 290 kts 304°
2026-04-30 14:25 48.23411 -3.60646 9448 ft 284 kts 304°
2026-04-30 14:25 48.25747 -3.65340 8860 ft 278 kts 304°
2026-04-30 14:26 48.28045 -3.69963 8288 ft 274 kts 303°
2026-04-30 14:26 48.29179 -3.72248 8008 ft 272 kts 303°
2026-04-30 14:26 48.31430 -3.76787 7450 ft 269 kts 303°
2026-04-30 14:27 48.32544 -3.79038 7179 ft 268 kts 303°
2026-04-30 14:27 48.33653 -3.81281 6901 ft 267 kts 303°
2026-04-30 14:27 48.34761 -3.83523 6617 ft 266 kts 303°
2026-04-30 14:28 48.36965 -3.87987 6037 ft 265 kts 303°
2026-04-30 14:28 48.38060 -3.90207 5761 ft 263 kts 303°
2026-04-30 14:28 48.39147 -3.92413 5494 ft 262 kts 303°
2026-04-30 14:28 48.40219 -3.94591 5216 ft 260 kts 303°
2026-04-30 14:29 48.42352 -3.98930 4697 ft 255 kts 303°
2026-04-30 14:29 48.44087 -4.02462 4522 ft 254 kts 303°
2026-04-30 14:30 48.47487 -4.09396 4153 ft 235 kts 303°
2026-04-30 14:31 48.49405 -4.13320 3766 ft 230 kts 304°
2026-04-30 14:31 48.50009 -4.17469 3406 ft 200 kts 255°
2026-04-30 14:31 48.49729 -4.19532 3182 ft 204 kts 250°
2026-04-30 14:32 48.48908 -4.23674 2639 ft 206 kts 248°
2026-04-30 14:32 48.48451 -4.25686 2331 ft 197 kts 247°
2026-04-30 14:32 48.48018 -4.27582 2054 ft 184 kts 247°
2026-04-30 14:33 48.47623 -4.29323 1813 ft 166 kts 248°
2026-04-30 14:33 48.46920 -4.32423 1430 ft 145 kts 246°
2026-04-30 14:33 48.46616 -4.33754 1236 ft 132 kts 247°
2026-04-30 14:34 48.46321 -4.35048 1093 ft 132 kts 246°
2026-04-30 14:34 48.46028 -4.36339 897 ft 129 kts 247°
2026-04-30 14:34 48.45745 -4.37622 731 ft 128 kts 246°
2026-04-30 14:34 48.45453 -4.38884 545 ft 126 kts 246°
2026-04-30 14:35 48.44997 -4.40934 321 ft 112 kts 246°
2026-04-30 14:35 48.44814 -4.41726 333 ft 44 kts 251°
2026-04-30 14:35 48.44738 -4.42060 330 ft 23 kts 250°
2026-04-30 14:36 48.44675 -4.42152 330 ft 12 kts 182°
2026-04-30 14:36 48.44594 -4.42116 330 ft 12 kts 161°
2026-04-30 14:36 48.44514 -4.42081 331 ft 11 kts 161°
2026-04-30 14:36 48.44456 -4.42051 331 ft 8 kts 161°
2026-04-30 14:37 48.44431 -4.42038 330 ft 1 kts 161°
2026-04-30 14:37 48.44430 -4.42038 330 ft 0 kts 161°